User: anonymous   Login
Location: Whitehorse
(60.7170°N, 135.0500°W)
Time: 23:23:20
(UTC-07:00)
Language:

Cosmos 2219 Rocket - Orbit

View from above orbital plane
View from above orbital plane
View from above satellite
View from above satellite

Ground track
Ground track

The orbit data is extracted from the following two-line orbital elements,

1 22220U 92076B   17264.08780933 -.00000214  00000-0 -83417-4 0  9996
2 22220  70.9993 217.3806 0011068 134.0824 283.6124 14.16418625284358
Epoch (UTC): 21 September 2017 02:06:26
Eccentricity: 0.0011068
inclination: 70.9993°
perigee height: 829 km
apogee height: 845 km
right ascension of ascending node: 217.3806°
argument of perigee: 134.0824°
revolutions per day: 14.16418625
mean anomaly at epoch: 283.6124°
orbit number at epoch: 28435

The dashed part of the orbit path shows where the satellite is in the earth's shadow,  

DLR